Regional Weather Roundup
Issued by NWS

Home | Current Version | Previous Version | Text Only | Print | Product List | Glossary Off
Versions: 1 2 3 4 5 6 7 8 9 10 11 12 13 14 15 16 17 18 19 20 21 22 23 24 25 26 27 28 29 30 31 32 33 34 35 36 37 38 39 40 41 42 43 44 45 46 47 48 49 50

000
ASUS43 KMPX 231501
RWRMN
WEATHER ROUNDUP FOR MINNESOTA
NATIONAL WEATHER SERVICE TWIN CITIES/CHANHASSEN MN
1000 AM CDT SAT AUG 23 2014


NOTE: "FAIR" INDICATES FEW OR NO CLOUDS BELOW 12,000 FEET WITH NO
SIGNIFICANT WEATHER AND/OR OBSTRUCTIONS TO VISIBILITY. N/A MEANS
CURRENT SKY AND/OR WEATHER CONDITIONS ARE NOT AVAILABLE.

MNZ060>063-068>070-231600-
   Twin Cities Metro

CITY           SKY/WX    TMP DP  RH WIND       PRES   REMARKS
TWIN CITIES    CLOUDY    70  67  90 E9        30.00S
ST PAUL        CLOUDY    70  66  87 E9        30.01S
CRYSTAL        CLOUDY    70  66  87 E7        30.00R
BLAINE         CLOUDY    70  70 100 E6        30.01R
LAKEVILLE      CLOUDY    68  66  94 NE6       30.00F FOG
EDEN PRAIRIE   CLOUDY    71  67  87 E8        29.99R
SOUTH ST PAUL  CLOUDY    70  66  88 E6        30.00S
LAKE ELMO      CLOUDY    68  66  94 E5        30.02S
$$
MNZ001>005-007-008-013>017-022>024-027-028-231600-
   Northwest Minnesota

CITY           SKY/WX    TMP DP  RH WIND       PRES   REMARKS
BEMIDJI        CLOUDY    67  66  97 SE7       30.05R
HALLOCK        CLOUDY    61  59  94 NE9       30.07R
ROSEAU         PTSUNNY   66  61  82 NE7       30.08S
WARROAD        PTSUNNY   68  64  88 NE7       30.09R
THIEF RVR FALL CLOUDY    66  64  94 NE9       30.05S
CROOKSTON      CLOUDY    66  66 100 E8        30.04S
FOSSTON        CLOUDY    70  68  94 NE7       30.04S
DETROIT LAKES  CLOUDY    70  66  88 E6        30.02F
MOORHEAD       CLOUDY    72  72 100 E5        29.99F
PARK RAPIDS    CLOUDY    67  64  90 E10       30.03S
MAHNOMEN       CLOUDY    70  67  92 E5        30.02S
$$
MNZ006-009>011-018-025>026-231600-
   North Central Minnesota

CITY           SKY/WX    TMP DP  RH WIND       PRES   REMARKS
BAUDETTE       CLOUDY    69  66  90 E8        30.08R
FLAG ISLAND    PTSUNNY   70  64  83 NE3       30.08R
INTL FALLS     CLOUDY    68  64  87 E6        30.09R
WASKISH        CLOUDY    70  68  94 E7        30.06F
BIG FORK       PTSUNNY   68  64  88 E5        30.08S
LONGVILLE      CLOUDY    64  64 100 NE3       30.05S
GRAND RAPIDS   CLOUDY    64  61  88 E6        30.07S
CRANE LAKE     CLOUDY    70  63  78 CALM      30.11R
ORR            CLOUDY    70  63  78 CALM      30.07R
COOK           CLOUDY    68  63  83 CALM      30.09S
WALKER         CLOUDY    65  64  93 E5        30.05R
$$
MNZ012-019>021-037-231600-
   Northeast Minnesota

CITY           SKY/WX    TMP DP  RH WIND       PRES   REMARKS
DULUTH         CLOUDY    65  61  87 E10       30.08R
ELY            MOSUNNY   70  59  68 E5        30.09R
HIBBING        CLOUDY    68  60  75 E8        30.08S
EVELETH        CLOUDY    64  61  88 E3        30.10R
DULUTH HARBOR  CLOUDY    63  61  94 NE12      30.07S
TWO HARBORS    CLOUDY    63  59  88 E9        30.07R
SILVER BAY     PTSUNNY   63  63 100 NE8       30.07S FOG
GRAND MARAIS     N/A     65  60  84 E9        30.08R
G MARAIS ARPRT CLOUDY    64  59  82 NE5       30.12S
$$
MNZ029>031-032-039>041-046>048-054>057-064-231600-
   West Central Minnesota

CITY           SKY/WX    TMP DP  RH WIND       PRES   REMARKS
FERGUS FALLS   CLOUDY    72  66  83 E7        29.98S
WHEATON        LGT RAIN  66  64  94 E9        29.96F
MORRIS         CLOUDY    70  66  88 E13       29.94F
ALEXANDRIA     CLOUDY    67  64  90 E10       30.00S
ELBOW LAKE     CLOUDY    69  65  88 E13       29.98S
WADENA         CLOUDY    66  64  94 E8G16     30.01F
GLENWOOD       CLOUDY    66  64  94 NE12G17   29.99S
APPLETON       CLOUDY    70  66  88 E14       29.94R
BENSON         CLOUDY    68  66  94 E7        29.96S
ORTONVILLE     CLOUDY    70  66  88 E9        29.94R FOG
MADISON        CLOUDY    72  70  94 E12       29.94R
WILLMAR        CLOUDY    68  64  88 E10       29.97R FOG
$$
MNZ033>034-036-042>043-049>051-058-059-231600-
   Central Minnesota

CITY           SKY/WX    TMP DP  RH WIND       PRES   REMARKS
ST CLOUD       CLOUDY    66  63  90 NE9       30.00F
SAUK CENTRE    CLOUDY    64  63  94 E12       30.00R
PAYNESVILLE    CLOUDY    63  63  99 NE12      29.99R FOG
AITKIN         CLOUDY    66  61  82 NE6       30.04S
PINE RIVER     CLOUDY    64  63  94 E10       30.08S
BRAINERD       CLOUDY    64  61  90 NE10      30.03F
STAPLES        CLOUDY    64  63  94 NE7       30.02S
LONG PRAIRIE   FOG       63  63 100 NE9       30.01S VSB 3/4
LITTLE FALLS   CLOUDY    64  61  88 E6        30.01S
LITCHFIELD     CLOUDY    68  68 100 E14       29.97F FOG
BUFFALO        CLOUDY    66  64  93 NE12      30.01S FOG
MAPLE LAKE     CLOUDY    67  66  98 E10       30.01S FOG
$$
MNZ037-044-045-052-053-231600-
   East Central Minnesota

CITY           SKY/WX    TMP DP  RH WIND       PRES   REMARKS
PRINCETON      CLOUDY    66  64  94 NE9       30.02S
MORA           CLOUDY    64  63  94 E5        30.05S
CAMBRIDGE      CLOUDY    66  59  77 NE6       30.01R HAZE
RUSH CITY      CLOUDY    65  64  94 NE6       30.03S
MOOSE LAKE     CLOUDY    64  61  88 NE3       30.04S
HINCKLEY       CLOUDY    66  63  88 E6        30.04R
CLOQUET        CLOUDY    64  61  88 E10       30.06S
MCGREGOR       CLOUDY    63  63 100 E7        30.06S
$$
MNZ071>073-080-081-089-090-097-098-231600-
   Southwest Minnesota

CITY           SKY/WX    TMP DP  RH WIND       PRES   REMARKS
MONTEVIDEO     CLOUDY    70  70 100 SE12      29.96R
GRANITE FALLS  CLOUDY    69  67  95 NE8       29.95S
CANBY          CLOUDY    69  67  95 E7        29.95R FOG
MARSHALL       CLOUDY    70  66  88 E7        29.93R
REDWOOD FALLS  CLOUDY    69  68  96 E5        29.94R FOG
OLIVIA         CLOUDY    70  68  94 E9        29.93R FOG
PIPESTONE      LGT RAIN  72  66  83 SE7       29.93R
WINDOM         CLOUDY    70  66  88 E9        29.94R FOG
WORTHINGTON      N/A     72  12  10 E10       29.94S
JACKSON        CLOUDY    70  68  94 E16G25    29.92F
TRACY          CLOUDY    71  69  93 NE7       29.94R
SLAYTON        CLOUDY    69  68  95 CALM      29.94R
$$
MNZ065>067-074>077-082>085-091>093-231600-
   South Central Minnesota

CITY           SKY/WX    TMP DP  RH WIND       PRES   REMARKS
MANKATO        CLOUDY    70  66  88 E14       29.95F
NEW ULM        DRIZZLE   68  68 100 E21G28    29.90F
ST JAMES       CLOUDY    72  70  94 E15G21    29.93R
FAIRMONT       CLOUDY    57 N/A N/A SE6       29.94S
GLENCOE        CLOUDY    69  67  92 E16       29.97F FOG
FARIBAULT      HAZE      72  66  83 N3        29.99F VSB 1/2
OWATONNA       RAIN      70  68  94 CALM      29.99F
WASECA         RAIN      66  63  88 NE3       30.00F
ALBERT LEA     RAIN      70  70 100 CALM      29.98F
$$
MNZ078>079-086>088-094>096-231600-
   Southeast Minnesota

CITY           SKY/WX    TMP DP  RH WIND       PRES   REMARKS
ROCHESTER      LGT RAIN  70  69  97 N5        30.02S VSB 1/4
RED WING       CLOUDY    72  68  88 NE3       29.98F
STANTON        CLOUDY    70  68  92 NE6       29.98F FOG
DODGE CENTER   RAIN      70  68  94 S9        30.03R VSB 1/2
WINONA         CLOUDY    73  72  94 CALM      29.98F
AUSTIN         RAIN      68  66  94 NE3       29.99F
PRESTON        FOG       69  69 100 CALM      30.00F VSB 1/2
$$
ABBREVIATIONS USED IN REMARKS
   TC - TEMPERATURES IN CELSIUS
  WCI - WIND CHILL INDEX
   HX - HEAT INDEX
  VSB - VISIBILITY
$$


USA.gov is the U.S. government's official web portal to all federal, state and local government web resources and services.